WAT151 LQSA-LTBJ

Flight info

Callsign WAT151
Flight time 1h 37m
Altitude 35000
Route KEB DCT MITNO DCT VABEK UL603 OLOTA DCT RUGAS DCT PEREN UN128 RIKSO
Aircraft B738/M-SDE2E3FGHIRWXY/LB1

Departure

Time 2026-04-22 13:42
Airport Sarajevo International Airport (LQSA)

Arrival

Time 2026-04-22 15:19
Airport Adnan Menderes International Airport (LTBJ)
Time Latitude Longitude Altitude Speed Heading
2026-04-22 13:07 43.82536 18.33627 1686 ft 0 kts 27°
2026-04-22 13:34 43.82529 18.33622 1685 ft 4 kts 30°
2026-04-22 13:34 43.82507 18.33601 1688 ft 4 kts 43°
2026-04-22 13:34 43.82491 18.33574 1687 ft 4 kts 69°
2026-04-22 13:34 43.82488 18.33543 1687 ft 2 kts 116°
2026-04-22 13:35 43.82491 18.33535 1687 ft 0 kts 116°
2026-04-22 13:37 43.82491 18.33536 1687 ft 0 kts 116°
2026-04-22 13:38 43.82489 18.33542 1687 ft 1 kts 117°
2026-04-22 13:38 43.82454 18.33635 1686 ft 10 kts 117°
2026-04-22 13:38 43.82417 18.33735 1690 ft 13 kts 117°
2026-04-22 13:39 43.82372 18.33851 1690 ft 13 kts 118°
2026-04-22 13:39 43.82331 18.33964 1693 ft 13 kts 115°
2026-04-22 13:39 43.82290 18.34073 1699 ft 13 kts 117°
2026-04-22 13:39 43.82250 18.34179 1703 ft 12 kts 117°
2026-04-22 13:40 43.82209 18.34288 1706 ft 13 kts 118°
2026-04-22 13:40 43.82167 18.34402 1707 ft 14 kts 116°
2026-04-22 13:40 43.82123 18.34523 1710 ft 15 kts 117°
2026-04-22 13:40 43.82053 18.34619 1713 ft 15 kts 160°
2026-04-22 13:41 43.81959 18.34588 1714 ft 15 kts 229°
2026-04-22 13:41 43.81973 18.34443 1710 ft 18 kts 297°
2026-04-22 13:41 43.82086 18.34142 1706 ft 68 kts 297°
2026-04-22 13:41 43.82414 18.33268 1691 ft 135 kts 297°
2026-04-22 13:42 43.82935 18.31911 1857 ft 173 kts 296°
2026-04-22 13:42 43.83473 18.30499 2877 ft 161 kts 300°
2026-04-22 13:42 43.83969 18.29076 3531 ft 170 kts 297°
2026-04-22 13:42 43.84545 18.27486 3752 ft 199 kts 297°
2026-04-22 13:43 43.85310 18.25813 4078 ft 215 kts 317°
2026-04-22 13:43 43.86699 18.25005 4392 ft 225 kts 360°
2026-04-22 13:43 43.88153 18.25619 5170 ft 214 kts 35°
2026-04-22 13:43 43.89101 18.27135 5860 ft 213 kts 63°
2026-04-22 13:44 43.89379 18.29247 6095 ft 242 kts 92°
2026-04-22 13:44 43.88896 18.31587 6533 ft 262 kts 110°
2026-04-22 13:44 43.88083 18.33931 7050 ft 277 kts 114°
2026-04-22 13:44 43.87190 18.36282 7943 ft 274 kts 115°
2026-04-22 13:45 43.86283 18.38641 8638 ft 281 kts 115°
2026-04-22 13:45 43.85356 18.41059 9331 ft 287 kts 116°
2026-04-22 13:45 43.84422 18.43512 10133 ft 291 kts 116°
2026-04-22 13:45 43.83465 18.46040 10593 ft 306 kts 116°
2026-04-22 13:46 43.82460 18.48715 10873 ft 326 kts 116°
2026-04-22 13:46 43.81750 18.50610 11292 ft 331 kts 117°
2026-04-22 13:46 43.80673 18.53491 11889 ft 339 kts 116°
2026-04-22 13:46 43.79596 18.56373 12791 ft 339 kts 117°
2026-04-22 13:47 43.78501 18.59309 13574 ft 345 kts 117°
2026-04-22 13:47 43.77027 18.63258 14564 ft 350 kts 117°
2026-04-22 13:47 43.76276 18.65272 15172 ft 349 kts 118°
2026-04-22 13:47 43.75148 18.68292 15844 ft 357 kts 118°
2026-04-22 13:48 43.74009 18.71342 16660 ft 359 kts 118°
2026-04-22 13:48 43.72856 18.74425 17432 ft 363 kts 118°
2026-04-22 13:48 43.71685 18.77554 18101 ft 371 kts 118°
2026-04-22 13:48 43.70491 18.80743 18765 ft 376 kts 118°
2026-04-22 13:49 43.69280 18.83971 19372 ft 381 kts 118°
2026-04-22 13:49 43.68051 18.87244 19971 ft 386 kts 118°
2026-04-22 13:49 43.66806 18.90556 20554 ft 391 kts 118°
2026-04-22 13:49 43.65541 18.93920 21141 ft 396 kts 118°
2026-04-22 13:50 43.64278 18.97275 21653 ft 403 kts 119°
2026-04-22 13:50 43.62975 19.00727 22256 ft 408 kts 119°
2026-04-22 13:50 43.61657 19.04217 22862 ft 413 kts 119°
2026-04-22 13:50 43.60320 19.07749 23443 ft 418 kts 119°
2026-04-22 13:51 43.58966 19.11327 23942 ft 423 kts 119°
2026-04-22 13:51 43.57593 19.14948 24399 ft 428 kts 119°
2026-04-22 13:51 43.56209 19.18597 24842 ft 431 kts 119°
2026-04-22 13:51 43.54810 19.22279 25259 ft 436 kts 119°
2026-04-22 13:52 43.53391 19.26007 25579 ft 444 kts 119°
2026-04-22 13:52 43.51949 19.29789 26058 ft 447 kts 119°
2026-04-22 13:52 43.50499 19.33591 26529 ft 450 kts 119°
2026-04-22 13:52 43.49036 19.37421 26956 ft 455 kts 119°
2026-04-22 13:53 43.47554 19.41295 27338 ft 459 kts 119°
2026-04-22 13:53 43.46058 19.45199 27733 ft 464 kts 119°
2026-04-22 13:53 43.44545 19.49143 28090 ft 468 kts 119°
2026-04-22 13:53 43.43017 19.53121 28473 ft 472 kts 119°
2026-04-22 13:54 43.41479 19.57120 28826 ft 475 kts 119°
2026-04-22 13:54 43.39923 19.61157 29182 ft 479 kts 119°
2026-04-22 13:54 43.38356 19.65219 29531 ft 483 kts 119°
2026-04-22 13:54 43.36776 19.69307 29889 ft 486 kts 119°
2026-04-22 13:55 43.35180 19.73431 30222 ft 490 kts 119°
2026-04-22 13:55 43.33574 19.77575 30519 ft 493 kts 119°
2026-04-22 13:55 43.31965 19.81726 30900 ft 492 kts 119°
2026-04-22 13:55 43.30358 19.85860 31386 ft 490 kts 120°
2026-04-22 13:56 43.28759 19.89970 31875 ft 487 kts 120°
2026-04-22 13:56 43.27185 19.94007 32296 ft 486 kts 119°
2026-04-22 13:56 43.25587 19.98100 32659 ft 486 kts 119°
2026-04-22 13:56 43.23991 20.02183 33029 ft 486 kts 119°
2026-04-22 13:57 43.22397 20.06257 33440 ft 485 kts 119°
2026-04-22 13:57 43.20803 20.10321 33876 ft 483 kts 119°
2026-04-22 13:57 43.19213 20.14372 34250 ft 482 kts 119°
2026-04-22 13:57 43.17627 20.18408 34543 ft 481 kts 120°
2026-04-22 13:58 43.16034 20.22453 34785 ft 483 kts 120°
2026-04-22 13:58 43.14440 20.26496 35045 ft 483 kts 120°
2026-04-22 13:58 43.11231 20.34618 35111 ft 487 kts 120°
2026-04-22 13:59 43.08015 20.42738 35115 ft 482 kts 120°
2026-04-22 13:59 43.04830 20.50758 35105 ft 480 kts 120°
2026-04-22 14:00 43.01629 20.58784 35102 ft 481 kts 122°
2026-04-22 14:00 42.97580 20.65942 35098 ft 474 kts 140°
2026-04-22 14:01 42.92768 20.72124 35096 ft 476 kts 141°
2026-04-22 14:01 42.87966 20.78263 35091 ft 477 kts 140°
2026-04-22 14:02 42.83145 20.84497 35083 ft 478 kts 140°
2026-04-22 14:02 42.78326 20.90758 35071 ft 479 kts 140°
2026-04-22 14:03 42.73498 20.97023 35055 ft 480 kts 140°
2026-04-22 14:03 42.68663 21.03280 35047 ft 479 kts 140°
2026-04-22 14:04 42.63833 21.09516 35051 ft 478 kts 140°
2026-04-22 14:04 42.59016 21.15720 35049 ft 477 kts 141°
2026-04-22 14:05 42.54202 21.21903 35049 ft 476 kts 141°
2026-04-22 14:06 42.46984 21.31149 35054 ft 476 kts 141°
2026-04-22 14:06 42.42165 21.37306 35058 ft 476 kts 141°
2026-04-22 14:07 42.37351 21.43445 35058 ft 476 kts 141°
2026-04-22 14:07 42.32533 21.49575 35049 ft 476 kts 142°
2026-04-22 14:08 42.27698 21.55713 35054 ft 477 kts 142°
2026-04-22 14:08 42.22849 21.61856 35052 ft 479 kts 141°
2026-04-22 14:09 42.18050 21.68138 35048 ft 482 kts 140°
2026-04-22 14:09 42.13290 21.74510 35051 ft 483 kts 140°
2026-04-22 14:10 42.08513 21.80877 35028 ft 483 kts 140°
2026-04-22 14:10 42.03719 21.87222 35044 ft 484 kts 140°
2026-04-22 14:11 41.98908 21.93563 35036 ft 485 kts 140°
2026-04-22 14:11 41.94110 21.99872 35042 ft 486 kts 140°
2026-04-22 14:12 41.89271 22.06223 35033 ft 487 kts 140°
2026-04-22 14:12 41.84422 22.12573 35021 ft 487 kts 140°
2026-04-22 14:13 41.79584 22.18898 35011 ft 485 kts 141°
2026-04-22 14:13 41.74762 22.25186 35024 ft 483 kts 141°
2026-04-22 14:14 41.69953 22.31443 35019 ft 481 kts 141°
2026-04-22 14:14 41.65161 22.37662 35022 ft 480 kts 141°
2026-04-22 14:15 41.60377 22.43858 35010 ft 478 kts 141°
2026-04-22 14:15 41.55611 22.50020 34989 ft 476 kts 142°
2026-04-22 14:16 41.50854 22.56154 35017 ft 476 kts 143°
2026-04-22 14:16 41.46086 22.62288 35025 ft 477 kts 143°
2026-04-22 14:17 41.41304 22.68429 35023 ft 478 kts 143°
2026-04-22 14:17 41.36500 22.74588 35024 ft 480 kts 143°
2026-04-22 14:18 41.31756 22.80905 35006 ft 487 kts 138°
2026-04-22 14:18 41.27317 22.87764 35009 ft 491 kts 135°
2026-04-22 14:19 41.22922 22.94730 35025 ft 492 kts 136°
2026-04-22 14:19 41.18480 23.01665 35025 ft 493 kts 136°
2026-04-22 14:20 41.11760 23.11998 35024 ft 493 kts 136°
2026-04-22 14:20 41.07274 23.18857 35020 ft 491 kts 137°
2026-04-22 14:21 41.00570 23.29085 34990 ft 489 kts 136°
2026-04-22 14:22 40.93897 23.39236 35038 ft 486 kts 136°
2026-04-22 14:23 40.87273 23.49277 35029 ft 485 kts 137°
2026-04-22 14:23 40.82802 23.56036 35033 ft 485 kts 137°
2026-04-22 14:24 40.78357 23.62739 35040 ft 485 kts 137°
2026-04-22 14:24 40.73940 23.69391 35020 ft 485 kts 137°
2026-04-22 14:25 40.69487 23.76080 35001 ft 484 kts 136°
2026-04-22 14:25 40.65048 23.82730 35026 ft 483 kts 136°
2026-04-22 14:26 40.60601 23.89379 35042 ft 484 kts 136°
2026-04-22 14:26 40.56148 23.96021 35029 ft 484 kts 137°
2026-04-22 14:27 40.51693 24.02654 35029 ft 484 kts 137°
2026-04-22 14:27 40.47234 24.09278 35030 ft 484 kts 137°
2026-04-22 14:28 40.42776 24.15886 35015 ft 483 kts 137°
2026-04-22 14:28 40.38320 24.22479 35011 ft 482 kts 137°
2026-04-22 14:29 40.33865 24.29053 35019 ft 482 kts 137°
2026-04-22 14:29 40.29411 24.35612 35020 ft 481 kts 137°
2026-04-22 14:30 40.24971 24.42138 35013 ft 479 kts 137°
2026-04-22 14:30 40.20535 24.48644 35013 ft 478 kts 137°
2026-04-22 14:31 40.16117 24.55110 35025 ft 476 kts 137°
2026-04-22 14:31 40.11725 24.61521 35010 ft 476 kts 137°
2026-04-22 14:32 40.07286 24.67989 35015 ft 475 kts 137°
2026-04-22 14:32 40.02906 24.74358 35014 ft 474 kts 137°
2026-04-22 14:32 40.00701 24.77559 34825 ft 476 kts 137°
2026-04-22 14:33 39.98492 24.80763 34498 ft 471 kts 138°
2026-04-22 14:33 39.96313 24.83924 34132 ft 467 kts 138°
2026-04-22 14:33 39.94147 24.87063 33723 ft 464 kts 138°
2026-04-22 14:33 39.91996 24.90174 33307 ft 461 kts 138°
2026-04-22 14:34 39.89860 24.93260 32918 ft 457 kts 138°
2026-04-22 14:34 39.87736 24.96325 32539 ft 454 kts 139°
2026-04-22 14:34 39.85630 24.99362 32166 ft 450 kts 139°
2026-04-22 14:34 39.84245 25.01356 31913 ft 448 kts 139°
2026-04-22 14:35 39.82160 25.04357 31559 ft 445 kts 139°
2026-04-22 14:35 39.80093 25.07328 31151 ft 442 kts 139°
2026-04-22 14:35 39.78037 25.10281 30843 ft 437 kts 139°
2026-04-22 14:35 39.76003 25.13200 30492 ft 434 kts 139°
2026-04-22 14:36 39.73978 25.16103 30143 ft 432 kts 139°
2026-04-22 14:36 39.71970 25.18979 29745 ft 429 kts 139°
2026-04-22 14:36 39.69973 25.21836 29354 ft 425 kts 139°
2026-04-22 14:36 39.67995 25.24664 28983 ft 421 kts 139°
2026-04-22 14:37 39.66030 25.27472 28613 ft 418 kts 139°
2026-04-22 14:37 39.64083 25.30250 28238 ft 415 kts 139°
2026-04-22 14:37 39.62148 25.33008 27871 ft 412 kts 139°
2026-04-22 14:37 39.60227 25.35744 27519 ft 409 kts 139°
2026-04-22 14:38 39.58316 25.38463 27153 ft 407 kts 139°
2026-04-22 14:38 39.56414 25.41167 26793 ft 404 kts 139°
2026-04-22 14:38 39.54527 25.43847 26438 ft 402 kts 139°
2026-04-22 14:38 39.52647 25.46516 26085 ft 400 kts 139°
2026-04-22 14:39 39.50782 25.49160 25737 ft 398 kts 139°
2026-04-22 14:39 39.48918 25.51799 25361 ft 395 kts 138°
2026-04-22 14:39 39.47068 25.54419 25024 ft 393 kts 138°
2026-04-22 14:40 39.43394 25.59614 24345 ft 390 kts 138°
2026-04-22 14:40 39.41567 25.62194 23998 ft 388 kts 138°
2026-04-22 14:40 39.39744 25.64765 23634 ft 388 kts 138°
2026-04-22 14:40 39.37917 25.67339 23230 ft 387 kts 138°
2026-04-22 14:41 39.36099 25.69901 22858 ft 385 kts 138°
2026-04-22 14:41 39.34293 25.72443 22489 ft 383 kts 138°
2026-04-22 14:41 39.32496 25.74971 22139 ft 381 kts 138°
2026-04-22 14:41 39.30713 25.77477 21785 ft 378 kts 138°
2026-04-22 14:42 39.28937 25.79971 21441 ft 376 kts 138°
2026-04-22 14:42 39.27175 25.82445 21103 ft 373 kts 138°
2026-04-22 14:42 39.25422 25.84903 20767 ft 371 kts 138°
2026-04-22 14:42 39.23678 25.87345 20435 ft 369 kts 137°
2026-04-22 14:43 39.21944 25.89771 20094 ft 367 kts 137°
2026-04-22 14:43 39.20217 25.92187 19760 ft 365 kts 137°
2026-04-22 14:43 39.18498 25.94588 19403 ft 363 kts 137°
2026-04-22 14:43 39.16790 25.96973 19091 ft 361 kts 137°
2026-04-22 14:44 39.15088 25.99346 18753 ft 360 kts 137°
2026-04-22 14:44 39.13414 26.01680 18437 ft 358 kts 137°
2026-04-22 14:44 39.11725 26.04034 18082 ft 357 kts 137°
2026-04-22 14:44 39.10045 26.06373 17723 ft 355 kts 137°
2026-04-22 14:45 39.08372 26.08702 17364 ft 353 kts 137°
2026-04-22 14:45 39.06709 26.11015 17031 ft 351 kts 137°
2026-04-22 14:45 39.05052 26.13315 16706 ft 349 kts 137°
2026-04-22 14:45 39.03407 26.15599 16382 ft 347 kts 137°
2026-04-22 14:46 39.01772 26.17868 16049 ft 345 kts 137°
2026-04-22 14:46 39.00145 26.20123 15735 ft 342 kts 137°
2026-04-22 14:46 38.98532 26.22357 15423 ft 340 kts 137°
2026-04-22 14:46 38.96925 26.24581 15106 ft 338 kts 137°
2026-04-22 14:47 38.95331 26.26786 14806 ft 336 kts 137°
2026-04-22 14:47 38.93748 26.28973 14504 ft 333 kts 137°
2026-04-22 14:47 38.92173 26.31149 14194 ft 331 kts 137°
2026-04-22 14:47 38.90613 26.33303 13891 ft 329 kts 137°
2026-04-22 14:48 38.89053 26.35455 13559 ft 327 kts 137°
2026-04-22 14:48 38.87507 26.37587 13209 ft 325 kts 137°
2026-04-22 14:48 38.85971 26.39703 12894 ft 323 kts 137°
2026-04-22 14:48 38.84449 26.41797 12597 ft 320 kts 137°
2026-04-22 14:49 38.83062 26.44022 12282 ft 322 kts 120°
2026-04-22 14:49 38.82183 26.46649 12045 ft 319 kts 114°
2026-04-22 14:49 38.81374 26.49282 11783 ft 317 kts 114°
2026-04-22 14:49 38.80569 26.51906 11540 ft 316 kts 114°
2026-04-22 14:50 38.79766 26.54501 11335 ft 311 kts 114°
2026-04-22 14:50 38.78966 26.57065 11037 ft 309 kts 114°
2026-04-22 14:50 38.78166 26.59610 10739 ft 307 kts 114°
2026-04-22 14:50 38.77367 26.62141 10456 ft 306 kts 115°
2026-04-22 14:51 38.76578 26.64632 10176 ft 305 kts 115°
2026-04-22 14:51 38.75788 26.67121 10026 ft 298 kts 115°
2026-04-22 14:51 38.74998 26.69604 9736 ft 297 kts 115°
2026-04-22 14:51 38.74228 26.72021 9432 ft 296 kts 115°
2026-04-22 14:52 38.73451 26.74457 9145 ft 295 kts 115°
2026-04-22 14:52 38.72676 26.76885 8844 ft 294 kts 115°
2026-04-22 14:52 38.71903 26.79305 8551 ft 293 kts 114°
2026-04-22 14:52 38.71130 26.81719 8261 ft 292 kts 114°
2026-04-22 14:53 38.70362 26.84120 7971 ft 291 kts 114°
2026-04-22 14:53 38.69596 26.86510 7682 ft 289 kts 114°
2026-04-22 14:53 38.68835 26.88883 7409 ft 288 kts 114°
2026-04-22 14:53 38.68079 26.91244 7143 ft 286 kts 114°
2026-04-22 14:54 38.67326 26.93590 6861 ft 284 kts 114°
2026-04-22 14:54 38.66578 26.95917 6678 ft 280 kts 114°
2026-04-22 14:54 38.65848 26.98189 6546 ft 272 kts 114°
2026-04-22 14:54 38.65135 27.00403 6420 ft 265 kts 114°
2026-04-22 14:55 38.64440 27.02558 6308 ft 258 kts 114°
2026-04-22 14:55 38.63595 27.04520 6163 ft 247 kts 137°
2026-04-22 14:55 38.62200 27.05654 5992 ft 232 kts 163°
2026-04-22 14:55 38.60684 27.06195 5761 ft 222 kts 172°
2026-04-22 14:56 38.59200 27.06585 5520 ft 215 kts 173°
2026-04-22 14:56 38.57758 27.06964 5271 ft 208 kts 173°
2026-04-22 14:56 38.56357 27.07340 5048 ft 203 kts 172°
2026-04-22 14:56 38.54992 27.07715 4877 ft 199 kts 172°
2026-04-22 14:57 38.53646 27.08115 4655 ft 199 kts 171°
2026-04-22 14:57 38.52294 27.08520 4401 ft 199 kts 172°
2026-04-22 14:57 38.50959 27.08923 4180 ft 194 kts 172°
2026-04-22 14:57 38.49666 27.09316 3981 ft 189 kts 172°
2026-04-22 14:58 38.48398 27.09700 3784 ft 185 kts 171°
2026-04-22 14:58 38.47158 27.10075 3574 ft 181 kts 170°
2026-04-22 14:58 38.45956 27.10439 3388 ft 174 kts 170°
2026-04-22 14:58 38.44779 27.10794 3207 ft 174 kts 170°
2026-04-22 14:59 38.43605 27.11148 3032 ft 173 kts 171°
2026-04-22 14:59 38.42452 27.11495 2821 ft 171 kts 172°
2026-04-22 14:59 38.41282 27.11849 2588 ft 171 kts 171°
2026-04-22 14:59 38.40132 27.12197 2366 ft 166 kts 172°
2026-04-22 15:00 38.39030 27.12530 2159 ft 157 kts 171°
2026-04-22 15:00 38.38001 27.12840 1915 ft 147 kts 171°
2026-04-22 15:00 38.37011 27.13139 1751 ft 151 kts 171°
2026-04-22 15:00 38.35985 27.13453 1595 ft 153 kts 173°
2026-04-22 15:01 38.34923 27.13773 1390 ft 158 kts 170°
2026-04-22 15:01 38.33854 27.14084 1150 ft 156 kts 170°
2026-04-22 15:01 38.32832 27.14417 964 ft 148 kts 173°
2026-04-22 15:01 38.31836 27.14699 782 ft 149 kts 174°
2026-04-22 15:02 38.30834 27.14994 520 ft 144 kts 168°
2026-04-22 15:02 38.29922 27.15274 417 ft 123 kts 174°
2026-04-22 15:02 38.29039 27.15505 879 ft 135 kts 176°
2026-04-22 15:02 38.28034 27.15750 1392 ft 163 kts 171°
2026-04-22 15:03 38.26703 27.16137 1322 ft 222 kts 168°
2026-04-22 15:03 38.25079 27.16648 1307 ft 253 kts 168°
2026-04-22 15:03 38.23416 27.17190 1212 ft 237 kts 169°
2026-04-22 15:03 38.21902 27.17673 1219 ft 212 kts 172°
2026-04-22 15:04 38.20550 27.18097 1338 ft 195 kts 170°
2026-04-22 15:04 38.19232 27.18493 1362 ft 198 kts 171°
2026-04-22 15:04 38.17858 27.18898 1801 ft 204 kts 172°
2026-04-22 15:04 38.16463 27.19319 2570 ft 210 kts 171°
2026-04-22 15:05 38.15015 27.19824 3302 ft 219 kts 161°
2026-04-22 15:05 38.13848 27.21111 4147 ft 235 kts 125°
2026-04-22 15:05 38.13405 27.23109 5041 ft 241 kts 90°
2026-04-22 15:05 38.13814 27.25191 5691 ft 245 kts 58°
2026-04-22 15:06 38.14522 27.26256 5872 ft 234 kts 30°
2026-04-22 15:06 38.16571 27.26946 6188 ft 242 kts 356°
2026-04-22 15:06 38.18371 27.26925 6229 ft 272 kts 355°
2026-04-22 15:06 38.20278 27.26844 6192 ft 275 kts 354°
2026-04-22 15:07 38.22194 27.26726 6196 ft 276 kts 353°
2026-04-22 15:07 38.24113 27.26634 6194 ft 277 kts 354°
2026-04-22 15:07 38.26048 27.26582 6190 ft 278 kts 355°
2026-04-22 15:07 38.27974 27.26557 6169 ft 276 kts 355°
2026-04-22 15:08 38.29866 27.26547 6167 ft 265 kts 356°
2026-04-22 15:08 38.31664 27.26542 6167 ft 252 kts 355°
2026-04-22 15:08 38.33356 27.26433 6167 ft 235 kts 342°
2026-04-22 15:08 38.34879 27.25835 6191 ft 227 kts 337°
2026-04-22 15:09 38.36379 27.25210 6196 ft 228 kts 338°
2026-04-22 15:09 38.37943 27.24574 6251 ft 245 kts 338°
2026-04-22 15:09 38.39609 27.23909 6226 ft 254 kts 338°
2026-04-22 15:09 38.41297 27.23247 6176 ft 252 kts 339°
2026-04-22 15:10 38.42958 27.22600 6188 ft 249 kts 339°
2026-04-22 15:10 38.44598 27.21961 6189 ft 251 kts 339°
2026-04-22 15:10 38.46294 27.21420 6185 ft 252 kts 343°
2026-04-22 15:10 38.47996 27.20923 6019 ft 247 kts 340°
2026-04-22 15:11 38.49630 27.20445 5861 ft 235 kts 341°
2026-04-22 15:11 38.51201 27.19983 5646 ft 226 kts 339°
2026-04-22 15:11 38.52677 27.19543 5549 ft 213 kts 338°
2026-04-22 15:11 38.54106 27.19113 5333 ft 210 kts 337°
2026-04-22 15:12 38.55501 27.18631 5150 ft 205 kts 330°
2026-04-22 15:12 38.56484 27.17513 4968 ft 179 kts 292°
2026-04-22 15:12 38.56846 27.15969 4882 ft 186 kts 271°
2026-04-22 15:12 38.56661 27.14335 4823 ft 188 kts 257°
2026-04-22 15:13 38.56360 27.12701 4744 ft 190 kts 257°
2026-04-22 15:13 38.56057 27.11072 4631 ft 186 kts 257°
2026-04-22 15:13 38.55692 27.09516 4556 ft 185 kts 243°
2026-04-22 15:13 38.54742 27.08416 4432 ft 191 kts 206°
2026-04-22 15:14 38.53430 27.08197 4270 ft 196 kts 174°
2026-04-22 15:14 38.52113 27.08589 4123 ft 193 kts 172°
2026-04-22 15:14 38.50803 27.08979 3957 ft 193 kts 172°
2026-04-22 15:14 38.49498 27.09370 3782 ft 193 kts 171°
2026-04-22 15:15 38.48201 27.09761 3634 ft 191 kts 171°
2026-04-22 15:15 38.46908 27.10149 3465 ft 190 kts 171°
2026-04-22 15:15 38.45649 27.10530 3292 ft 182 kts 169°
2026-04-22 15:15 38.44446 27.10896 3118 ft 173 kts 172°
2026-04-22 15:16 38.43284 27.11247 2952 ft 172 kts 172°
2026-04-22 15:16 38.42116 27.11598 2725 ft 172 kts 172°
2026-04-22 15:16 38.40973 27.11944 2512 ft 166 kts 171°
2026-04-22 15:16 38.39863 27.12279 2281 ft 162 kts 170°
2026-04-22 15:17 38.38767 27.12610 2095 ft 163 kts 170°
2026-04-22 15:17 38.37682 27.12934 1880 ft 158 kts 172°
2026-04-22 15:17 38.36634 27.13254 1665 ft 152 kts 170°
2026-04-22 15:17 38.35613 27.13561 1423 ft 151 kts 169°
2026-04-22 15:18 38.34582 27.13877 1220 ft 152 kts 169°
2026-04-22 15:18 38.33543 27.14195 1074 ft 153 kts 170°
2026-04-22 15:18 38.32511 27.14484 825 ft 147 kts 171°
2026-04-22 15:18 38.31558 27.14796 641 ft 140 kts 171°
2026-04-22 15:19 38.30605 27.15062 455 ft 140 kts 172°
2026-04-22 15:19 38.29722 27.15328 413 ft 116 kts 170°
2026-04-22 15:19 38.29151 27.15505 415 ft 53 kts 165°
2026-04-22 15:19 38.28957 27.15563 414 ft 24 kts 168°
2026-04-22 15:20 38.28848 27.15593 414 ft 24 kts 165°
2026-04-22 15:20 38.28666 27.15649 409 ft 17 kts 168°
2026-04-22 15:20 38.28620 27.15660 417 ft 6 kts 172°
2026-04-22 15:20 38.28585 27.15628 411 ft 8 kts 251°
2026-04-22 15:21 38.28578 27.15597 415 ft 5 kts 255°
2026-04-22 15:21 38.28566 27.15530 414 ft 10 kts 257°
2026-04-22 15:21 38.28577 27.15433 415 ft 13 kts 323°
2026-04-22 15:21 38.28716 27.15386 415 ft 19 kts 346°
2026-04-22 15:22 38.28786 27.15365 416 ft 15 kts 346°
2026-04-22 15:22 38.28905 27.15327 412 ft 10 kts 341°
2026-04-22 15:22 38.28932 27.15288 411 ft 4 kts 273°
2026-04-22 15:22 38.28925 27.15239 411 ft 8 kts 257°
2026-04-22 15:23 38.28921 27.15213 411 ft 1 kts 255°
2026-04-22 15:23 38.28920 27.15209 411 ft 0 kts 256°